Flag for Russia Weather past 2 weeks in Barnaul, Russia

Now
1 °F

Sunny.


Feels Like: 1 °F
Forecast: -19 / 3 °F
Wind: No wind

Location: Barnaul Airport

Current Time: Jan 31, 2015 at 10:08:29 AM

Latest Report: Jan 31, 2015 at 9:30 AM


Visibility: 10 mi

Pressure: 30.48 "Hg

Humidity: 60%

Dew point: -9 °F

Location of BarnaulLocation

Historic Weather in Barnaul — Graph

°F

Barnaul temperature yesterday

Maximum temperature yesterday: 10 °F (at 3:30 PM)
Minimum temperature yesterday: -4 °F (at 6:00 AM)
Average temperature yesterday: 3 °F

Past Weeks' High & Low Weather Summary

 TemperatureHumidityPressure
High28 °F (Jan 16, 1:30 PM)93% (Jan 16, 8:00 AM)30.95 "Hg (Jan 16, 8:00 AM)
Low-29 °F (Jan 27, 5:30 AM)44% (Jan 30, 3:30 PM)29.68 "Hg (Jan 21, 7:00 AM)
Average5 °F72%30.32 "Hg
* Reported Jan 16 8:00 AM — Jan 31 8:30 AM, Barnaul, Weather by CustomWeather, © 2014

Note: Actual official high and low records may vary slightly from our data, if they occured in-between our weather recording intervals... More about our weather records

Advertising

Barnaul weather history for previous 24 hours

 ConditionsComfort  
Time TempWeatherWind HumidityBarometerVisibility
8:30 AM
Jan 31
-2 °FSunny.1 mph71%30.48 "Hg10 mi
8:00 AM-2 °FClear.1 mph71%30.48 "Hg10 mi
7:30 AM0 °FClear.3 mph71%30.48 "Hg10 mi
7:00 AM-2 °FClear.3 mph77%30.48 "Hg10 mi
6:30 AM0 °FClear.3 mph71%30.48 "Hg10 mi
6:00 AM-2 °FClear.No wind65%30.48 "Hg10 mi
5:30 AM-4 °FClear.No wind65%30.48 "Hg10 mi
5:00 AM-2 °FClear.No wind59%30.45 "Hg10 mi
4:30 AM0 °FClear.No wind60%30.45 "Hg10 mi
4:00 AM1 °FClear.No wind55%30.45 "Hg10 mi
3:30 AM1 °FClear.No wind55%30.45 "Hg10 mi
2:30 AM1 °FClear.3 mph50%30.45 "Hg10 mi
2:00 AM3 °FClear.3 mph50%30.45 "Hg10 mi
1:30 AM0 °FClear.6 mph54%30.45 "Hg10 mi
1:00 AM3 °FClear.3 mph46%30.45 "Hg10 mi
12:30 AM5 °FClear.6 mph46%30.45 "Hg10 mi
12:00 AM5 °FClear.3 mph46%30.45 "Hg10 mi
11:30 PM
Jan 30
5 °FClear.3 mph51%30.45 "Hg10 mi
11:00 PM3 °FClear.3 mph55%30.45 "Hg10 mi
10:30 PM3 °FClear.6 mph55%30.45 "Hg10 mi
10:00 PM5 °FClear.6 mph51%30.45 "Hg10 mi
9:30 PM5 °FClear.6 mph51%30.48 "Hg10 mi
9:00 PM5 °FClear.6 mph51%30.48 "Hg10 mi
8:30 PM5 °FClear.6 mph51%30.48 "Hg10 mi
8:00 PM5 °FClear.6 mph55%30.48 "Hg10 mi
7:30 PM5 °FClear.6 mph55%30.48 "Hg10 mi
7:00 PM3 °FClear.3 mph60%30.48 "Hg10 mi
6:30 PM3 °FClear.3 mph55%30.48 "Hg10 mi
6:00 PM5 °FClear.6 mph51%30.48 "Hg10 mi
5:30 PM5 °FClear.3 mph51%30.48 "Hg10 mi
5:00 PM7 °FSunny.3 mph51%30.45 "Hg10 mi
4:30 PM9 °FSunny.3 mph47%30.45 "Hg10 mi
4:00 PM9 °FSunny.3 mph47%30.45 "Hg10 mi
3:30 PM10 °FSunny.1 mph44%30.45 "Hg10 mi
3:00 PM7 °FSunny.3 mph51%30.45 "Hg10 mi
2:30 PM9 °FSunny.1 mph47%30.45 "Hg10 mi
2:00 PM9 °FSunny.3 mph47%30.45 "Hg10 mi
1:30 PM7 °FSunny.3 mph47%30.45 "Hg10 mi
1:00 PM7 °FSunny.6 mph47%30.45 "Hg10 mi
12:30 PM7 °FSunny.6 mph47%30.45 "Hg10 mi
12:00 PM5 °FSunny.6 mph51%30.45 "Hg10 mi
11:30 AM5 °FSunny.8 mph55%30.45 "Hg10 mi
11:00 AM1 °FSunny.8 mph65%30.45 "Hg10 mi
10:30 AM1 °FSunny.8 mph60%30.45 "Hg10 mi
10:00 AM1 °FSunny.10 mph65%30.45 "Hg10 mi
Weather by CustomWeather, © 2014

See weather overviewHow to use our weather pages